Miscellaneous Local Product
Issued by NWS Hastings, NE

Home | Current Version | Previous Version | Graphics & Text | Print | Product List | Glossary On
Versions: 1 2 3 4 5 6 7 8 9 10 11 12 13 14 15 16 17 18 19 20 21 22 23 24 25 26 27 28 29 30 31 32 33 34 35 36 37 38 39 40 41 42 43 44 45 46 47 48 49 50
000
AXUS43 KGID 040502
MISGRI

GID CWA HOURLY WEATHER ROUNDUP
NATIONAL WEATHER SERVICE HASTINGS NE
1100 PM CST TUE MAR 03 2015

NOTE: "FAIR" INDICATES FEW OR NO CLOUDS BELOW 12,000 FEET WITH NO
SIGNIFICANT WEATHER AND/OR OBSTRUCTIONS TO VISIBILITY.

...SOUTH CENTRAL NEBRASKA...

CITY           SKY/WX    TMP DP  RH WIND       PRES   REMARKS
GRAND ISLAND   MIX PCPN  19   5  54 N20       30.15R WCI   3
HASTINGS       CLOUDY    20   4  50 N17       30.13R WCI   5
KEARNEY        CLOUDY    18  10  73 N14       30.14R WCI   4
ORD            LGT SNOW  18   7  62 NW10      30.13R WCI   6
YORK           CLOUDY    19   7  58 N18G24    30.12R WCI   4
AURORA         CLOUDY    20   4  51 N15G21    30.12R WCI   6
LEXINGTON      LGT SNOW  19  15  88 N8        30.13R WCI   8
HOLDREGE       LGT SNOW  20  10  64 N14G21    30.11R WCI   6
HEBRON         CLOUDY    22   7  51 N13       30.12R WCI  10

...NEBRASKA PANHANDLE...

CITY           SKY/WX    TMP DP  RH WIND       PRES   REMARKS
CHADRON        PTCLDY     5  -1  76 W3        30.09R
ALLIANCE       CLOUDY    14   8  77 NW10      30.03R WCI   1
SCOTTSBLUFF    CLOUDY    16   8  71 NW7       30.05R WCI   6
SIDNEY         LGT SNOW  15  11  83 N9        30.01R FOG     WCI   3

...WESTERN AND NORTH CENTRAL NEBRASKA...

CITY           SKY/WX    TMP DP  RH WIND       PRES   REMARKS
VALENTINE      CLOUDY    14   2  58 NW9       30.09R WCI   2
AINSWORTH      CLOUDY    16   3  57 NW13      30.08R WCI   2
ONEILL         CLOUDY    18   5  56 NW12      30.08R WCI   6
BROKEN BOW     LGT SNOW  17  10  74 N12       30.11S WCI   4
IMPERIAL         N/A     18  12  77 E6        30.06R WCI  10
NORTH PLATTE   FLURRIES  16  12  84 N6        30.11R WCI   7
MCCOOK         LGT SNOW  20  16  84 N14       30.11R VSB 3/4 WCI   7

...EASTERN NEBRASKA...

CITY           SKY/WX    TMP DP  RH WIND       PRES   REMARKS
NORFOLK        CLOUDY    18   5  57 W5        30.12R WCI  11
SO SIOUX CITY  MOCLDY    16   5  62 N9        30.14R WCI   4
TEKAMAH        PTCLDY    18   7  62 N9        30.15R WCI   7
COLUMBUS       MOCLDY    19   0  42 NW9       30.17R WCI   9
ALBION         CLOUDY    18   3  52 NW3       30.13R
OMAHA EPPLEY   PTCLDY    18   7  62 N17       30.13R WCI   3
OFFUTT AFB     PTCLDY    19   6  57 N15G21    30.12R WCI   4
MILLARD        PTCLDY    20   7  56 N7G16     30.13R WCI  11
LINCOLN        PTCLDY    19   7  59 N15       30.15R WCI   5
NEBRASKA CITY  CLEAR     19   6  56 N14       30.10R WCI   6
BEATRICE       PTCLDY    20   8  58 N15G22    30.11R WCI   7
FALLS CITY     PTCLDY    22   7  52 N14       30.09R WCI   9

...NORTHERN KANSAS...

CITY           SKY/WX    TMP DP  RH WIND       PRES   REMARKS
GOODLAND       CLOUDY    23  12  62 NE14      29.99R WCI  11
HILL CITY      CLOUDY    25   6  44 NE15      30.11R WCI  13
NORTON         FLURRIES  21   7  53 N17G24    30.09R WCI   7
PHILLIPSBURG   CLOUDY    27   5  39 N15G24    30.12R WCI  15
SMITH CENTER   CLOUDY    21   3  45 N15G21    30.11R WCI   8
BELOIT         CLOUDY    25   9  50 N17       30.11R WCI  11
HAYS           CLOUDY    27   7  43 NE14      30.08R WCI  15
RUSSELL        CLOUDY    26   9  48 NE13      30.06R WCI  15
CONCORDIA      CLEAR     23   8  52 N15G23    30.09R WCI  10
SALINA         CLEAR     27   9  46 N15       30.09R WCI  15
TOPEKA         MOCLDY    30  18  60 N12       30.05R WCI  20



USA.gov is the U.S. government's official web portal to all federal, state and local government web resources and services.